Regional Weather Roundup
Issued by NWS Portland, ME

Current Version | Previous Version | Text Only | Print | Product List | Glossary Off
Versions: 1 2 3 4 5 6 7 8 9 10 11 12 13 14 15 16 17 18 19 20 21 22 23 24 25 26 27 28 29 30 31 32 33 34 35 36 37 38 39 40 41 42 43 44 45 46 47 48 49 50
000 ASUS41 KGYX 241605 RWRGYX WEATHER ROUNDUP FOR MAINE AND NEW HAMPSHIRE NATIONAL WEATHER SERVICE GRAY ME 1200 PM EDT SUN JUN 24 2018 MEZ002-005-006-010-012-015-018-020-021-024-026-027-029-241700- MAINE CITY SKY/WX TMP DP RH WIND PRES REMARKS PORTLAND PTSUNNY 71 59 65 VRB3 29.81S SANFORD CLOUDY 71 61 70 CALM 29.81S BAR HARBOR CLOUDY 63 58 83 W5 29.81S WISCASSET CLOUDY 67 58 72 SE6 29.82S ROCKLAND CLOUDY 66 58 75 W5 29.80F FRYEBURG CLOUDY 63 60 90 CALM 29.83S LEWISTONAUBURN CLOUDY 68 59 73 CALM 29.81F AUGUSTA PTSUNNY 69 57 65 VRB5 29.81S WATERVILLE PTSUNNY 67 56 67 CALM 29.78S BANGOR PTSUNNY 66 58 75 S5 29.79F GREENVILLE N/A 61 57 87 NW5 29.80R MILLINOCKET CLOUDY 67 57 70 VRB5 29.78R HOULTON CLOUDY 67 59 75 W8 29.74S PRESQUE ISLE FAIR 69 52 54 NW10 29.76R FRENCHVILLE FAIR 71 49 45 NW17 29.76R CARIBOU FAIR 69 53 56 NW8 29.74R $$ NHZ002-005-008-009-011-012-014-241700- NEW HAMPSHIRE CITY SKY/WX TMP DP RH WIND PRES REMARKS PORTSMOUTH PTSUNNY 72 60 67 SW7 29.80S ROCHESTER CLOUDY 71 62 73 CALM 29.80S NASHUA PTSUNNY 74 65 73 VRB5 29.81F MANCHESTER PTSUNNY 73 61 65 SW5 29.79F CONCORD CLOUDY 69 60 73 CALM 29.82S LACONIA PTSUNNY 67 60 78 SW5 29.82S PLYMOUTH CLOUDY 68 60 75 W5 29.80F BERLIN CLOUDY 64 58 80 CALM 29.83F WHITEFIELD CLOUDY 62 58 86 CALM 29.84S JAFFREY CLOUDY 71 64 78 VRB3 29.83F KEENE FAIR 76 63 64 N5 29.82F LEBANON CLOUDY 66 57 72 VRB3 29.82S FOG MT WASHINGTON FOG 50 50 100 W16 N/A VSB 1/16 $$ VTZ005-007-008-241700- VERMONT CITY SKY/WX TMP DP RH WIND PRES REMARKS ST JOHNSBURY N/A 61 56 83 MISG 29.82S MONTPELIER CLOUDY 65 60 84 NW6 29.86F BURLINGTON CLOUDY 65 59 81 W6 29.83R $$ MAZ007-012-024-CTZ003-RIZ002-NYZ038-NYZ072-241700- SOUTHERN NEW ENGLAND AND NY CITY SKY/WX TMP DP RH WIND PRES REMARKS BOSTON PTSUNNY 74 61 63 NW5 29.82F WORCESTER CLOUDY 68 63 84 SW6 29.85S NANTUCKET PTSUNNY 66 63 90 SW13 29.87S PROVIDENCE CLOUDY 74 64 71 W12 29.84F HARTFORD PTSUNNY 74 65 73 S8 29.82F ALBANY CLOUDY 72 63 73 S8 29.81S NEW YORK CITY PTSUNNY 80 65 59 SW8 29.82F $$ ANZ081-ANZ082-ANZ150-NHZ014-MEZ023>029-241700- COASTAL MARINE OBSERVATIONS STATION/POSITION TIME TEMP WIND PRES WAVE AIR SEA DIR/SP/G HT/PER (UTC) (F) (DEG/KT/KT) (MB) (FT/S) MOUNT DESERT ROC 1600 53 230/ 12/ 13 1009.8F MATINICUS ROCK 1500 55 230/ 10/ 10 1009.4R ISLE OF SHOALS 1500 60 180/ 9/ 10 1009.4R JEFFREYS LEDGE 1536 61 N/A 2/ 8 $$ .............KEY.............. WCI - WIND CHILL TC - TEMPERATURE IN CELSIUS VSB - VISIBILITY IN MILES HX - HEAT INDEX FAIR- INDICATES FEW OR NO CLOUDS BELOW 12,000 FT, WITH NO SIGNIFICANT WEATHER AND/OR OBSTRUCTIONS TO VISIBILITY.

USA.gov is the U.S. government's official web portal to all federal, state and local government web resources and services.